Miscellaneous Local Product
Issued by NWS North Platte, NE

Home | Current Version | Previous Version | Text Only | Print | Product List | Glossary On
Versions: 1 2 3 4 5 6 7 8 9 10 11 12 13 14 15 16 17 18 19 20 21 22 23 24 25 26 27 28 29 30 31 32 33 34 35 36 37 38 39 40 41 42 43 44 45 46 47 48 49 50
000
AXUS43 KLBF 271710
MISLBF


WESTERN AND NORTH CENTRAL NEBRASKA HOURLY WEATHER ROUNDUP
NATIONAL WEATHER SERVICE NORTH PLATTE NE
1200 PM CDT WED AUG 27 2014

***STATIONS NOT REPORTING VARIABLES SUCH AS SKY/WEATHER OR
PRESSURE ARE PROVIDED BY THE NEBRASKA DEPARTMENT OF
ROADS...RAWS...AND APRS NETWORKS...AND ARE NOT UNDER
NATIONAL WEATHER SERVICE QUALITY CONTROL***

...OBSERVATIONS IN AND NEAR THE EASTERN PANHANDLE OF NEBRASKA...

CITY           SKY/WX    TMP DP  RH WIND       PRES   REMARKS
PINE RIDGE     PTSUNNY   75  63  66 MISG      30.11F
CHADRON        CLOUDY    72  61  68 E8        30.10F
ALLIANCE       CLOUDY    73  63  70 SE15G22   30.13S
SIDNEY         PTSUNNY   74  60  61 SE13      30.14F
WHITECLAY        N/A     75  60  59 SE5         N/A
RUSHVILLE        N/A     80  63  55 SE15        N/A
GORDON           N/A     81  67  63 E13         N/A
CRESCENT LAKE    N/A     75  60  58 SE8G15      N/A
LISCO            N/A     78  61  55 E13         N/A
BIG SPRINGS      N/A     70  64  81 S9          N/A
$$

...OBSERVATIONS IN NORTH CENTRAL NEBRASKA...

CITY           SKY/WX    TMP DP  RH WIND       PRES   REMARKS
VALENTINE      CLOUDY    75  67  76 E8        30.12F
THEDFORD       CLOUDY    73  66  80 SE9       30.15F
AINSWORTH      CLOUDY    70  65  85 SE9       30.15S
O`NEILL        LGT RAIN  69  67  94 E8        30.14F
ORD            CLOUDY    68  65  90 SE9       30.15R
BROKEN BOW     CLOUDY    71  67  87 E12       30.16R
BROWNLEE         N/A     76  67  73 SE12        N/A
SPRINGVIEW       N/A     71  65  83 SE5G12      N/A
ROSE             N/A     71  70  99 E7          N/A
NEWPORT          N/A     71  69  93 SE10        N/A
SARGENT          N/A     68  66  94 E3          N/A
COMSTOCK         N/A     75  74  96 E8          N/A
CHAMBERS         N/A     70  68  94 E5G13       N/A
EWING            N/A     69  68  97 CALM        N/A
$$

...OBSERVATIONS IN SOUTHWEST NEBRASKA AND FAR NORTHEAST COLORADO...

CITY           SKY/WX    TMP DP  RH WIND       PRES   REMARKS
WRAY             N/A     75  62  64 S13       30.12F
HOLYOKE        CLOUDY    73  64  73 S12G17    30.13F
IMPERIAL       PTSUNNY   74  65  73 S12       30.12F
OGALLALA       CLOUDY    73  62  68 S14       30.11F
NORTH PLATTE   CLOUDY    73  67  81 E7        30.13F
MCCOOK         PTSUNNY   74  67  78 SE12      30.13S
LEXINGTON      CLOUDY    72  68  87 E9        30.15S
PAXTON           N/A     69  65  89 CALM        N/A
SUTHERLAND       N/A     77  70  78 S6          N/A
BRADY            N/A     70  66  86 CALM        N/A
GOTHENBURG       N/A     71  63  77 E3          N/A
CALLAWAY         N/A     69  68  98 SE6         N/A
$$

...SOME WEATHER OBSERVATIONS FROM AROUND THE REGION...

CITY           SKY/WX    TMP DP  RH WIND       PRES   REMARKS
DENVER         PTSUNNY   68  58  70 NW8       30.18F
LARAMIE        CLOUDY    59  51  75 W9        30.28F
CHEYENNE       CLOUDY    65  53  65 W12       30.22R
SCOTTSBLUFF    CLOUDY    71  63  75 E15       30.11S
RAPID CITY     SUNNY     70  60  70 NE12      30.14S
PIERRE         CLOUDY    66  63  90 E14       30.11S
WINNER         CLOUDY    73  66  78 E14       30.12S
SIOUX FALLS    CLOUDY    67  59  75 E10       30.18F
OMAHA          LGT RAIN  69  66  90 E10       30.16F FOG
GRAND ISLAND   CLOUDY    71  67  87 E10       30.17S
KANSAS CITY    CLOUDY    75  68  78 NE9       30.15F
WICHITA        PTSUNNY   86  64  47 S5        30.11F
HAYS           CLOUDY    75  63  64 CALM      30.11S
LIBERAL        PTSUNNY   81  68  65 S17G23    30.14F
GOODLAND       CLOUDY    73  65  75 S18       30.13F
$$



USA.gov is the U.S. government's official web portal to all federal, state and local government web resources and services.